CT1EBQ-13 Weather Reports


Display with metric or nautical units.
time (UTC)temp
F
wind
direction
speed
MPH
gust
MPH
rain 1hr
in
rain 24hr
in
rain mn
in
humidity
%
barometer
mb
20260507043609 56 330 9.0 25.0 0.00 0.00 0.00 85 1009.0
20260507041607 56 330 9.0 25.0 0.00 0.00 0.00 85 1010.0
20260507035606 56 330 9.0 25.0 0.00 0.00 0.00 85 1010.0
20260507033604 56 330 9.0 25.0 0.00 0.00 0.00 85 1010.0
20260507031603 56 330 9.0 25.0 0.00 0.00 0.00 85 1010.0
20260507025602 56 330 9.0 25.0 0.00 0.00 0.00 85 1010.0
20260507023601 56 330 9.0 25.0 0.00 0.00 0.00 85 1010.0
20260507021601 56 330 9.0 25.0 0.00 0.00 0.00 85 1010.0
20260507015601 56 330 9.0 25.0 0.00 0.00 0.00 85 1010.0
20260507013600 56 330 9.0 25.0 0.00 0.00 0.00 85 1011.0
20260507011600 56 330 9.0 25.0 0.00 0.00 0.00 85 1011.0
20260507005600 56 330 9.0 25.0 0.00 0.00 0.00 85 1011.0
20260507003559 56 330 9.0 25.0 0.00 0.00 0.00 85 1011.0
20260507001558 56 330 9.0 25.0 0.00 0.00 0.00 85 1011.0
20260506235558 56 330 9.0 25.0 0.00 0.00 0.00 85 1011.0
20260506233557 56 330 9.0 25.0 0.00 0.00 0.00 85 1011.0
20260506231556 56 330 9.0 25.0 0.00 0.00 0.00 85 1011.0
20260506225555 56 330 9.0 25.0 0.00 0.00 0.00 85 1011.0
20260506223555 57 328 10.0 26.0 0.00 0.00 0.00 84 1011.0
20260506221555 57 328 10.0 26.0 0.00 0.00 0.00 84 1012.0
20260506215554 57 328 10.0 26.0 0.00 0.00 0.00 84 1012.0
20260506213553 58 328 10.0 24.0 0.00 0.00 0.00 80 1012.0
20260506211552 58 328 10.0 24.0 0.00 0.00 0.00 80 1012.0
20260506205550 59 328 10.0 24.0 0.00 0.00 0.00 80 1012.0
20260506203549 59 328 10.0 24.0 0.00 0.00 0.00 80 1012.0
20260506201549 61 322 11.0 23.0 0.00 0.00 0.00 73 1011.0
20260506195547 61 322 11.0 23.0 0.00 0.00 0.00 73 1011.0
20260506193547 64 318 11.0 21.0 0.00 0.00 0.00 64 1011.0
20260506191546 64 318 11.0 21.0 0.00 0.00 0.00 64 1011.0
20260506185546 64 318 11.0 21.0 0.00 0.00 0.00 64 1011.0
20260506183546 66 322 12.0 15.0 0.00 0.00 0.00 55 1011.0
20260506181545 66 322 12.0 15.0 0.00 0.00 0.00 55 1011.0
20260506175544 66 322 12.0 15.0 0.00 0.00 0.00 55 1011.0
20260506173544 70 324 7.0 7.0 0.00 0.00 0.00 38 1011.0
20260506171541 70 324 7.0 7.0 0.00 0.00 0.00 38 1011.0
20260506165540 70 324 7.0 7.0 0.00 0.00 0.00 38 1011.0
20260506163538 70 324 7.0 7.0 0.00 0.00 0.00 38 1011.0
20260506161538 70 324 7.0 7.0 0.00 0.00 0.00 38 1011.0
20260506155538 70 324 7.0 7.0 0.00 0.00 0.00 38 1011.0
20260506153538 70 324 7.0 7.0 0.00 0.00 0.00 38 1011.0
20260506151537 70 324 7.0 7.0 0.00 0.00 0.00 38 1011.0
20260506145537 70 324 7.0 7.0 0.00 0.00 0.00 38 1011.0
20260506143536 70 324 7.0 7.0 0.00 0.00 0.00 38 1011.0
20260506141534 70 324 7.0 7.0 0.00 0.00 0.00 38 1011.0
20260506135534 70 324 7.0 7.0 0.00 0.00 0.00 38 1011.0
20260506133533 70 324 7.0 7.0 0.00 0.00 0.00 38 1012.0
20260506131531 70 324 7.0 7.0 0.00 0.00 0.00 38 1012.0
20260506125531 70 324 7.0 7.0 0.00 0.00 0.00 38 1012.0
20260506123529 70 324 7.0 7.0 0.00 0.00 0.00 38 1012.0
20260506121528 70 324 7.0 7.0 0.00 0.00 0.00 38 1012.0
20260506115526 70 324 7.0 7.0 0.00 0.00 0.00 38 1012.0
20260506113525 66 346 7.0 7.0 0.00 0.00 0.00 54 1012.0
20260506111524 66 346 7.0 7.0 0.00 0.00 0.00 54 1013.0
20260506105522 66 346 7.0 7.0 0.00 0.00 0.00 54 1013.0
20260506103521 66 346 7.0 7.0 0.00 0.00 0.00 54 1014.0
20260506101511 66 346 7.0 7.0 0.00 0.00 0.00 54 1014.0
20260506095510 66 346 7.0 7.0 0.00 0.00 0.00 54 1014.0
20260506093509 62 344 8.0 9.0 0.00 0.00 0.00 73 1014.0
20260506091508 62 344 8.0 9.0 0.00 0.00 0.00 73 1014.0
20260506085506 62 344 8.0 9.0 0.00 0.00 0.00 73 1014.0
20260506083504 57 348 8.0 13.0 0.00 0.00 0.00 82 1014.0
20260506081501 57 348 8.0 13.0 0.00 0.00 0.00 82 1014.0
20260506073459 53 334 6.0 18.0 0.00 0.00 0.00 93 1014.0
20260506071457 53 334 6.0 18.0 0.00 0.00 0.00 93 1014.0
20260506061454 53 334 6.0 18.0 0.00 0.00 0.00 93 1014.0